Location: Buchloe
(48.0161°N, 10.7316°E)
Time: 06:23:29
(UTC+02:00)

ISS - Pass Details

Date: 06 July 2025
Orbit: 413 x 417 km, 51.6° (Epoch: 16 July)

Event Time Altitude Azimuth Distance (km) Brightness Sun altitude
Rises 04:26:57 0° 292° (WNW) 2,359 -0.2 -8.1°
Reaches altitude 10° 04:29:03 10° 292° (WNW) 1,495 -1.2 -7.8°
Maximum altitude 04:32:24 86° 203° (SSW) 422 -3.8 -7.4°
Drops below altitude 10° 04:35:45 10° 116° (ESE) 1,491 -0.7 -7.1°
Sets 04:37:51 0° 116° (ESE) 2,352 0.3 -6.8°
